This demonstration page uses our WeatherBlox Daily Observations layout. Learn more.

Left ArrowRight Arrow

Hourly Observations for January 21, 2015

Temp ( °F °C ) Dew Point ( °F °C ) Humidity (%) Winds ( mph kmh ) Pressure ( in mb ) Visibility ( mi km ) Precip ( " mm )
12:51 am 00:51 Clear 46 7.8 30 -1.1 54 54 N N/A 29.86 1011 10 16 N/A
2:51 am 02:51 Clear 41 5 29 -1.7 62 62 N N/A 29.85 1011 10 16 N/A
3:51 am 03:51 Clear 42 5.6 29 -1.7 60 60 N N/A 29.83 1010 10 16 N/A
4:51 am 04:51 Clear 42 5.6 30 -1.1 62 62 N N/A 29.82 1010 10 16 N/A
5:51 am 05:51 Clear 42 5.6 30 -1.1 62 62 ESE 3 6 29.82 1010 10 16 N/A
6:51 am 06:51 Clear 42 5.6 29 -1.7 60 60 S 5 7 29.84 1011 10 16 N/A
7:51 am 07:51 Sunny 43 6.1 29 -1.7 58 58 SE 7 11 29.83 1010 10 16 N/A
8:51 am 08:51 Sunny 47 8.3 29 -1.7 50 50 N N/A 29.88 1012 10 16 N/A
9:51 am 09:51 Mostly Cloudy 47 8.3 29 -1.7 50 50 SE 10 17 29.88 1012 10 16 N/A
10:51 am 10:51 Sunny 50 10 29 -1.7 44 44 SSW 8 13 29.87 1012 10 16 N/A
11:51 am 11:51 Sunny 57 13.9 29 -1.7 34 34 NNW 5 7 29.85 1011 10 16 N/A
12:51 pm 12:51 Sunny 62 16.7 28 -2.2 28 28 N N/A 29.80 1009 10 16 N/A
1:51 pm 13:51 Sunny 66 18.9 27 -2.8 23 23 VRB 5 7 29.77 1008 10 16 N/A
2:51 pm 14:51 Cloudy 67 19.4 24 -4.4 20 20 WNW 12 19 29.77 1008 10 16 N/A
3:51 pm 15:51 Mostly Sunny 66 18.9 26 -3.3 22 22 WNW 14 22 29.77 1008 10 16 N/A
4:51 pm 16:51 Mostly Sunny 63 17.2 26 -3.3 25 25 NNW 18 30 29.78 1009 10 16 N/A
5:51 pm 17:51 Cloudy 62 16.7 28 -2.2 28 28 NW 18 30 29.82 1010 10 16 N/A
6:51 pm 18:51 Clear 57 13.9 32 undefined 39 39 NNW 15 24 29.86 1011 10 16 N/A
7:51 pm 19:51 Clear 53 11.7 34 1.1 48 48 W 14 22 29.90 1013 10 16 N/A
8:51 pm 20:51 Cloudy 54 12.2 35 1.7 49 49 WNW 21 33 29.91 1013 10 16 N/A
9:51 pm 21:51 Cloudy 52 11.1 34 1.1 50 50 NW 16 26 29.93 1013 10 16 N/A
10:51 pm 22:51 Cloudy 50 10 35 1.7 57 57 W 7 11 29.93 1014 10 16 N/A
11:51 pm 23:51 Mostly Cloudy 48 8.9 34 1.1 58 58 NW 10 17 29.93 1014 10 16 N/A

Powered by AerisWeather